This demonstration page uses our WeatherBlox Daily Observations layout. Learn more.

Left ArrowRight Arrow

31.84235, -102.49876

Hourly Observations for March 5, 2015

Temp ( °F °C ) Dew Point ( °F °C ) Humidity (%) Winds ( mph kmh ) Pressure ( in mb ) Visibility ( mi km ) Precip ( " mm )
12:23 am 00:23 Cloudy 24 -4.4 19 -7.2 81 81 NNE 18 30 30.56 1035 10 16 0.00 0.03
12:53 am 00:53 Cloudy 25 -3.9 20 -6.7 81 81 NE 16 26 30.41 1030 10 16 0.00 0.03
1:40 am 01:40 Cloudy 25 -3.9 19 -7.2 78 78 NE 16 26 30.56 1035 10 16 0.00 0.00
1:53 am 01:53 Cloudy 24 -4.4 18 -7.8 77 77 NE 22 35 30.44 1031 10 16 0.00 0.00
2:23 am 02:23 Cloudy 25 -3.9 19 -7.2 78 78 NE 13 20 30.56 1035 10 16 0.00 0.00
2:53 am 02:53 Cloudy 25 -3.9 19 -7.2 78 78 NNE 16 26 30.46 1032 10 16 0.00 0.00
3:53 am 03:53 Cloudy 24 -4.4 16 -8.9 71 71 NNE 14 22 30.48 1032 10 16 0.00 0.00
4:07 am 04:07 Cloudy 24 -4.4 17 -8.3 75 75 NNE 16 26 30.59 1036 10 16 0.00 0.00
4:53 am 04:53 Cloudy 25 -3.9 18 -7.8 75 75 NNE 12 19 30.50 1033 10 16 0.00 0.00
5:53 am 05:53 Cloudy 25 -3.9 16 -8.9 69 69 NNE 12 19 30.53 1034 10 16 0.00 0.00
6:53 am 06:53 Cloudy 25 -3.9 14 -10 63 63 NNE 12 19 30.55 1034 10 16 0.00 0.00
7:53 am 07:53 Cloudy 26 -3.3 16 -8.9 66 66 NE 6 9 30.57 1035 10 16 0.00 0.00
8:53 am 08:53 Cloudy 28 -2.2 14 -10 56 56 NE 8 13 30.59 1036 10 16 0.00 0.00
9:53 am 09:53 Mostly Sunny 30 -1.1 13 -10.6 49 49 ENE 8 13 30.61 1037 10 16 0.00 0.00
10:53 am 10:53 Sunny 31 -0.6 14 -10 49 49 VRB 6 9 30.61 1037 10 16 0.00 0.00
11:53 am 11:53 Sunny 33 0.6 16 -8.9 49 49 VRB 5 7 30.60 1036 10 16 0.00 0.00
12:53 pm 12:53 Sunny 36 2.2 17 -8.3 46 46 SE 6 9 30.56 1035 10 16 0.00 0.00
1:53 pm 13:53 Sunny 37 2.8 17 -8.3 44 44 VRB 5 7 30.53 1034 10 16 0.00 0.00
2:53 pm 14:53 Sunny 38 3.3 18 -7.8 44 44 Calm 30.50 1033 10 16 0.00 0.00
3:53 pm 15:53 Sunny 40 4.4 19 -7.2 43 43 SSW 5 7 30.47 1032 10 16 0.00 0.00
4:53 pm 16:53 Sunny 41 5 20 -6.7 43 43 VRB 5 7 30.47 1032 10 16 0.00 0.00
5:53 pm 17:53 Sunny 41 5 20 -6.7 43 43 SSW 5 7 30.46 1032 10 16 0.00 0.00
6:53 pm 18:53 Clear 39 3.9 22 -5.6 50 50 SSW 5 7 30.46 1032 10 16 0.00 0.00
7:53 pm 19:53 Clear 36 2.2 22 -5.6 57 57 S 6 9 30.48 1032 10 16 0.00 0.00
8:53 pm 20:53 Clear 35 1.7 22 -5.6 59 59 S 7 11 30.48 1032 10 16 0.00 0.00
9:53 pm 21:53 Clear 33 0.6 23 -5 66 66 S 6 9 30.50 1033 10 16 0.00 0.00
10:53 pm 22:53 Clear 32 0 24 -4.4 73 73 SSW 7 11 30.50 1033 10 16 0.00 0.00
11:53 pm 23:53 Clear 30 -1.1 25 -3.9 82 82 WSW 5 7 30.49 1032 10 16 0.00 0.00

Powered by AerisWeather